Airfield :
LOGIN :

Register | Disclaimer

   EN    FR    IT 

 










Legend :    VFR   Marginal VFR   IFR   Intensive IFR   Very Intensive IFR
Visi :
Ceiling :
>= 8 km
>= 3000ft
5 to 8 km
1000 to 3000 ft
1500m to 5 km
500 to 1000 ft
800 to 1500m
200 to 500 ft
< 800m
< 200 ft
Symbols :   Thunderstorms  Fog  Heavy snow  Heavy precipitations  Wind > 20 kt
SIGMETs :     Misc.  Thunderstorms  Icing  Turbulence  Mountain Waves  Volcanic Ashes







- Airport Elevation : 56 ft


LPOV - Ovar Air Base

CURRENT METAR :
  • 182300Z VRB01KT 6000 NSC 07/06 Q1019

EXPIRED METARs :
  • 182200Z VRB01KT 6000 NSC 07/06 Q1019
  • 182100Z VRB02KT 5000 BR NSC 07/07 Q1019

TAF TAF LPOV
Valid from the 18 at 18:00 until the 19 at 18:00 UTC


181700Z 1818/1918 34005KT CAVOK
BECMG 1819/1821 VRB02KT
PROB30 1823/1909 3000 BR NSC
BECMG 1915/1917 31005KT
No reported NOTAMs for that airfield.



MET'MAP, your aeronautical weather chart ! - Copyright ORBIFLY December 2007 - Disclaimer

ORBIFLY MET'MAP TEAM :

Programming & Development : Alexandra Zaïnal
Concept & Development : Baudouin d'Aumeries
Co-Development & Prog : Marc-Olivier Méhu
Technical & hardware support : Manuel Goepfert

Contact : metmap@orbifly.com




SOURCES & CREDITS :

   NOAA